| time (UTC) | temp F | wind direction | speed knots | gust knots | rain 1hr in | rain 24hr in | rain mn in | humidity % | barometer mb |
| 20260507094305 | 58 | 358 | 2.6 | 7.0 | 0.00 | 0.35 | 0.00 | 82 | 1017.2 |
| 20260507093805 | 58 | 321 | 2.6 | 8.7 | 0.00 | 0.35 | 0.00 | 82 | 1017.3 |
| 20260507093305 | 58 | 7 | 5.2 | 12.2 | 0.00 | 0.35 | 0.00 | 82 | 1017.2 |
| 20260507091305 | 58 | 356 | 1.7 | 7.0 | 0.00 | 0.35 | 0.00 | 82 | 1016.8 |
| 20260507090805 | 58 | 0 | 1.7 | 4.3 | 0.00 | 0.35 | 0.00 | 82 | 1016.9 |
| 20260507090304 | 58 | 335 | 0.9 | 5.2 | 0.00 | 0.35 | 0.00 | 82 | 1016.9 |
| 20260507083805 | 58 | 348 | 1.7 | 4.3 | 0.00 | 0.35 | 0.00 | 81 | 1016.3 |
| 20260507081805 | 58 | 15 | 0.0 | 0.9 | 0.00 | 0.35 | 0.00 | 81 | 1016.3 |
| 20260507081305 | 58 | 15 | 0.9 | 1.7 | 0.00 | 0.35 | 0.00 | 81 | 1016.4 |
| 20260507080805 | 58 | 15 | 0.0 | 1.7 | 0.00 | 0.35 | 0.00 | 80 | 1016.4 |
| 20260507074304 | 58 | 34 | 0.0 | 2.6 | 0.00 | 0.35 | 0.00 | 79 | 1015.6 |
| 20260507073805 | 58 | 32 | 1.7 | 7.8 | 0.00 | 0.35 | 0.00 | 79 | 1015.8 |
| 20260507073305 | 58 | 24 | 0.9 | 4.3 | 0.00 | 0.35 | 0.00 | 79 | 1015.9 |
| 20260507071304 | 58 | 53 | 1.7 | 7.8 | 0.00 | 0.35 | 0.00 | 79 | 1015.5 |
| 20260507070805 | 58 | 30 | 0.9 | 10.4 | 0.00 | 0.35 | 0.00 | 79 | 1015.4 |
| 20260507070305 | 58 | 79 | 2.6 | 7.0 | 0.00 | 0.35 | 0.00 | 79 | 1015.6 |
| 20260507064805 | 59 | 28 | 2.6 | 7.8 | 0.00 | 0.35 | 0.00 | 80 | 1015.6 |
| 20260507063804 | 59 | 36 | 2.6 | 4.3 | 0.00 | 0.35 | 0.00 | 80 | 1015.8 |
| 20260507063305 | 59 | 358 | 1.7 | 7.0 | 0.00 | 0.35 | 0.00 | 80 | 1015.5 |
| 20260507061805 | 59 | 61 | 1.7 | 5.2 | 0.00 | 0.35 | 0.00 | 79 | 1015.7 |
| 20260507061304 | 59 | 18 | 0.9 | 2.6 | 0.00 | 0.35 | 0.00 | 79 | 1015.7 |
| 20260507060805 | 59 | 18 | 0.9 | 4.3 | 0.00 | 0.35 | 0.00 | 79 | 1015.5 |
| 20260507060305 | 59 | 352 | 0.9 | 4.3 | 0.00 | 0.35 | 0.00 | 79 | 1015.6 |
| 20260507054805 | 59 | 355 | 0.9 | 1.7 | 0.00 | 0.35 | 0.00 | 79 | 1015.8 |
| 20260507054305 | 59 | 355 | 0.9 | 4.3 | 0.00 | 0.35 | 0.00 | 79 | 1015.6 |
| 20260507053304 | 59 | 333 | 2.6 | 5.2 | 0.00 | 0.35 | 0.00 | 79 | 1015.5 |
| 20260507051805 | 59 | 355 | 2.6 | 7.0 | 0.00 | 0.35 | 0.00 | 79 | 1015.5 |
| 20260507051304 | 59 | 338 | 4.3 | 7.8 | 0.00 | 0.35 | 0.00 | 79 | 1015.4 |
| 20260507050804 | 60 | 330 | 0.9 | 7.0 | 0.00 | 0.35 | 0.00 | 79 | 1015.5 |
| 20260507044305 | 59 | 11 | 1.7 | 10.4 | 0.00 | 0.35 | 0.35 | 79 | 1015.1 |
| 20260507043805 | 60 | 341 | 1.7 | 7.8 | 0.00 | 0.35 | 0.35 | 80 | 1015.3 |
| 20260507043305 | 59 | 67 | 1.7 | 8.7 | 0.00 | 0.35 | 0.35 | 80 | 1015.6 |
| 20260507041804 | 60 | 336 | 2.6 | 7.8 | 0.00 | 0.35 | 0.35 | 80 | 1015.3 |
| 20260507041305 | 60 | 335 | 5.2 | 10.4 | 0.00 | 0.35 | 0.35 | 80 | 1015.4 |
| 20260507040305 | 60 | 6 | 0.9 | 5.2 | 0.00 | 0.35 | 0.35 | 80 | 1015.4 |
| 20260507034804 | 60 | 344 | 1.7 | 5.2 | 0.00 | 0.35 | 0.35 | 80 | 1015.5 |
| 20260507033305 | 60 | 5 | 1.7 | 8.7 | 0.00 | 0.35 | 0.35 | 80 | 1015.5 |
| 20260507031805 | 60 | 311 | 1.7 | 2.6 | 0.00 | 0.35 | 0.35 | 79 | 1015.1 |
| 20260507031304 | 60 | 14 | 2.6 | 7.8 | 0.00 | 0.35 | 0.35 | 80 | 1015.0 |
| 20260507030804 | 60 | 326 | 2.6 | 8.7 | 0.00 | 0.35 | 0.35 | 80 | 1015.0 |
| 20260507030304 | 60 | 345 | 5.2 | 12.2 | 0.00 | 0.35 | 0.35 | 80 | 1015.1 |
| 20260507024805 | 60 | 337 | 2.6 | 5.2 | 0.00 | 0.35 | 0.35 | 79 | 1015.0 |
| 20260507024305 | 60 | 343 | 1.7 | 5.2 | 0.00 | 0.35 | 0.35 | 79 | 1015.1 |
| 20260507023805 | 60 | 333 | 1.7 | 4.3 | 0.00 | 0.35 | 0.35 | 79 | 1015.3 |
| 20260507023305 | 60 | 331 | 2.6 | 5.2 | 0.00 | 0.35 | 0.35 | 79 | 1015.1 |
| 20260507021805 | 60 | 324 | 1.7 | 5.2 | 0.00 | 0.35 | 0.35 | 79 | 1014.7 |
| 20260507021305 | 61 | 350 | 2.6 | 5.2 | 0.00 | 0.35 | 0.35 | 79 | 1014.4 |
| 20260507020805 | 61 | 0 | 2.6 | 4.3 | 0.00 | 0.35 | 0.35 | 79 | 1014.2 |
| 20260507020304 | 61 | 345 | 4.3 | 10.4 | 0.00 | 0.35 | 0.35 | 79 | 1014.3 |
| 20260507014805 | 61 | 30 | 1.7 | 5.2 | 0.00 | 0.35 | 0.35 | 79 | 1014.1 |
| 20260507014304 | 61 | 312 | 4.3 | 7.8 | 0.00 | 0.35 | 0.35 | 79 | 1014.0 |
| 20260507013305 | 61 | 316 | 2.6 | 8.7 | 0.00 | 0.35 | 0.35 | 78 | 1013.9 |
| 20260507011804 | 61 | 19 | 2.6 | 5.2 | 0.00 | 0.35 | 0.35 | 78 | 1013.4 |
| 20260507011305 | 61 | 347 | 4.3 | 5.2 | 0.00 | 0.35 | 0.35 | 78 | 1013.1 |
| 20260507010804 | 61 | 351 | 2.6 | 8.7 | 0.00 | 0.35 | 0.35 | 78 | 1013.2 |
| 20260507010304 | 61 | 354 | 3.5 | 7.8 | 0.00 | 0.35 | 0.35 | 78 | 1013.2 |
| 20260507004305 | 61 | 347 | 2.6 | 5.2 | 0.00 | 0.35 | 0.35 | 78 | 1013.3 |
| 20260507003804 | 61 | 346 | 2.6 | 8.7 | 0.00 | 0.35 | 0.35 | 78 | 1013.1 |
| 20260507003305 | 61 | 354 | 4.3 | 8.7 | 0.00 | 0.35 | 0.35 | 78 | 1012.7 |
| 20260507000805 | 61 | 343 | 4.3 | 8.7 | 0.00 | 0.35 | 0.35 | 78 | 1012.8 |
| 20260507000306 | 61 | 348 | 1.7 | 11.3 | 0.00 | 0.35 | 0.35 | 78 | 1012.7 |
| 20260506234304 | 61 | 328 | 3.5 | 8.7 | 0.00 | 0.35 | 0.35 | 77 | 1012.7 |
| 20260506233805 | 61 | 1 | 4.3 | 12.2 | 0.00 | 0.35 | 0.35 | 77 | 1013.0 |
| 20260506231805 | 61 | 338 | 4.3 | 8.7 | 0.00 | 0.35 | 0.35 | 77 | 1012.5 |
| 20260506231305 | 61 | 0 | 7.0 | 13.0 | 0.00 | 0.35 | 0.35 | 77 | 1012.6 |
| 20260506230804 | 61 | 350 | 3.5 | 8.7 | 0.00 | 0.35 | 0.35 | 78 | 1012.5 |
| 20260506230305 | 61 | 339 | 3.5 | 10.4 | 0.00 | 0.35 | 0.35 | 77 | 1012.7 |
| 20260506224304 | 61 | 338 | 4.3 | 12.2 | 0.00 | 0.35 | 0.35 | 78 | 1012.7 |
| 20260506223804 | 61 | 348 | 6.1 | 10.4 | 0.00 | 0.35 | 0.35 | 78 | 1012.6 |
| 20260506221805 | 61 | 334 | 4.3 | 8.7 | 0.00 | 0.35 | 0.35 | 78 | 1012.5 |
| 20260506221304 | 60 | 335 | 7.8 | 13.9 | 0.00 | 0.35 | 0.35 | 78 | 1012.3 |
| 20260506220804 | 60 | 318 | 6.1 | 13.0 | 0.00 | 0.35 | 0.35 | 78 | 1012.4 |
| 20260506220305 | 60 | 341 | 5.2 | 11.3 | 0.00 | 0.35 | 0.35 | 78 | 1012.3 |
| 20260506214805 | 61 | 341 | 4.3 | 8.7 | 0.00 | 0.35 | 0.35 | 77 | 1012.6 |
| 20260506214304 | 61 | 321 | 5.2 | 13.0 | 0.00 | 0.35 | 0.35 | 77 | 1012.4 |
| 20260506213804 | 61 | 352 | 5.2 | 13.9 | 0.00 | 0.35 | 0.35 | 77 | 1012.3 |
| 20260506211805 | 61 | 343 | 10.4 | 17.4 | 0.00 | 0.35 | 0.35 | 76 | 1012.2 |
| 20260506211304 | 62 | 342 | 10.4 | 13.9 | 0.00 | 0.35 | 0.35 | 76 | 1012.3 |
| 20260506210804 | 62 | 357 | 7.8 | 12.2 | 0.00 | 0.35 | 0.35 | 77 | 1012.2 |
| 20260506204805 | 62 | 327 | 10.4 | 13.9 | 0.00 | 0.35 | 0.35 | 76 | 1012.6 |
| 20260506204304 | 62 | 346 | 6.1 | 13.0 | 0.00 | 0.35 | 0.35 | 77 | 1012.6 |
| 20260506203805 | 62 | 319 | 5.2 | 13.0 | 0.00 | 0.35 | 0.35 | 77 | 1012.5 |
| 20260506203304 | 62 | 348 | 5.2 | 13.0 | 0.00 | 0.35 | 0.35 | 76 | 1012.6 |
| 20260506201805 | 63 | 336 | 8.7 | 13.9 | 0.00 | 0.35 | 0.35 | 76 | 1012.6 |
| 20260506200804 | 64 | 349 | 7.8 | 12.2 | 0.00 | 0.35 | 0.35 | 75 | 1012.4 |
| 20260506200304 | 64 | 322 | 7.8 | 13.9 | 0.00 | 0.35 | 0.35 | 74 | 1012.3 |
| 20260506194804 | 65 | 328 | 8.7 | 12.2 | 0.00 | 0.35 | 0.35 | 75 | 1012.2 |
| 20260506194305 | 66 | 350 | 7.0 | 13.9 | 0.00 | 0.35 | 0.35 | 75 | 1012.1 |
| 20260506193304 | 67 | 340 | 7.8 | 13.0 | 0.00 | 0.35 | 0.35 | 75 | 1012.0 |
| 20260506191805 | 67 | 331 | 6.1 | 13.0 | 0.00 | 0.35 | 0.35 | 75 | 1012.0 |
| 20260506191305 | 67 | 345 | 6.1 | 13.9 | 0.00 | 0.35 | 0.35 | 75 | 1012.0 |
| 20260506190804 | 67 | 334 | 7.0 | 13.0 | 0.00 | 0.35 | 0.35 | 75 | 1012.1 |
| 20260506190304 | 68 | 331 | 6.1 | 13.9 | 0.00 | 0.35 | 0.35 | 75 | 1012.0 |
| 20260506184304 | 74 | 305 | 5.2 | 11.3 | 0.00 | 0.35 | 0.35 | 72 | 1011.8 |
| 20260506183804 | 75 | 296 | 1.7 | 11.3 | 0.00 | 0.35 | 0.35 | 72 | 1011.7 |
| 20260506183305 | 76 | 343 | 1.7 | 5.2 | 0.00 | 0.35 | 0.35 | 72 | 1011.6 |
| 20260506181804 | 77 | 306 | 4.3 | 5.2 | 0.00 | 0.35 | 0.35 | 70 | 1011.6 |
| 20260506181305 | 76 | 6 | 1.7 | 2.6 | 0.00 | 0.35 | 0.35 | 71 | 1011.5 |
| 20260506180805 | 76 | 15 | 1.7 | 7.0 | 0.00 | 0.35 | 0.35 | 74 | 1011.6 |
| 20260506180304 | 75 | 319 | 5.2 | 11.3 | 0.00 | 0.35 | 0.35 | 75 | 1011.6 |
| 20260506174805 | 73 | 336 | 2.6 | 8.7 | 0.00 | 0.35 | 0.35 | 78 | 1011.3 |
| 20260506173804 | 70 | 327 | 2.6 | 7.0 | 0.00 | 0.35 | 0.35 | 83 | 1011.2 |
| 20260506173305 | 70 | 92 | 2.6 | 7.0 | 0.00 | 0.35 | 0.35 | 85 | 1011.2 |
| 20260506171805 | 67 | 43 | 2.6 | 5.2 | 0.01 | 0.35 | 0.35 | 86 | 1011.3 |
| 20260506171304 | 66 | 141 | 2.6 | 7.8 | 0.04 | 0.35 | 0.35 | 86 | 1011.5 |
| 20260506170304 | 64 | 39 | 2.6 | 10.4 | 0.35 | 0.35 | 0.35 | 86 | 1011.4 |
| 20260506164805 | 64 | 128 | 1.7 | 10.4 | 0.35 | 0.35 | 0.35 | 86 | 1011.6 |
| 20260506164304 | 63 | 103 | 5.2 | 12.2 | 0.35 | 0.35 | 0.35 | 86 | 1011.3 |
| 20260506163804 | 62 | 61 | 5.2 | 10.4 | 0.35 | 0.35 | 0.35 | 85 | 1011.5 |
| 20260506163304 | 61 | 10 | 5.2 | 11.3 | 0.35 | 0.35 | 0.35 | 85 | 1011.6 |
| 20260506161804 | 60 | 345 | 1.7 | 7.8 | 0.34 | 0.34 | 0.34 | 83 | 1012.5 |
| 20260506160805 | 61 | 4 | 6.1 | 18.2 | 0.13 | 0.13 | 0.13 | 81 | 1012.1 |
| 20260506160304 | 61 | 16 | 7.8 | 24.3 | 0.00 | 0.00 | 0.00 | 80 | 1012.5 |
| 20260506154804 | 62 | 3 | 11.3 | 26.1 | 0.00 | 0.00 | 0.00 | 79 | 1012.2 |
| 20260506153805 | 63 | 28 | 10.4 | 22.6 | 0.00 | 0.00 | 0.00 | 79 | 1011.4 |
| 20260506153305 | 64 | 357 | 12.2 | 21.7 | 0.00 | 0.00 | 0.00 | 79 | 1011.6 |
| 20260506151804 | 66 | 13 | 9.6 | 17.4 | 0.00 | 0.00 | 0.00 | 79 | 1011.6 |
| 20260506151305 | 66 | 350 | 8.7 | 14.8 | 0.00 | 0.00 | 0.00 | 80 | 1011.5 |
| 20260506150305 | 66 | 344 | 10.4 | 18.2 | 0.00 | 0.00 | 0.00 | 79 | 1011.6 |
| 20260506144804 | 70 | 352 | 9.6 | 20.9 | 0.00 | 0.00 | 0.00 | 76 | 1010.7 |
| 20260506144304 | 73 | 354 | 7.8 | 12.2 | 0.00 | 0.00 | 0.00 | 75 | 1010.4 |
| 20260506143804 | 76 | 21 | 7.8 | 14.8 | 0.00 | 0.00 | 0.00 | 78 | 1010.2 |
| 20260506143305 | 76 | 150 | 0.9 | 10.4 | 0.00 | 0.00 | 0.00 | 80 | 1010.0 |
| 20260506141804 | 75 | 142 | 5.2 | 11.3 | 0.00 | 0.00 | 0.00 | 81 | 1009.6 |
| 20260506141305 | 75 | 118 | 6.1 | 12.2 | 0.00 | 0.00 | 0.00 | 81 | 1009.5 |
| 20260506140804 | 75 | 141 | 7.0 | 12.2 | 0.00 | 0.00 | 0.00 | 82 | 1009.4 |
| 20260506140304 | 75 | 157 | 4.3 | 11.3 | 0.00 | 0.00 | 0.00 | 82 | 1009.5 |
| 20260506134805 | 74 | 139 | 4.3 | 7.8 | 0.00 | 0.00 | 0.00 | 83 | 1009.8 |
| 20260506134305 | 74 | 116 | 4.3 | 7.8 | 0.00 | 0.00 | 0.00 | 83 | 1009.5 |
| 20260506133805 | 74 | 124 | 5.2 | 8.7 | 0.00 | 0.00 | 0.00 | 83 | 1009.2 |
| 20260506133305 | 74 | 153 | 2.6 | 10.4 | 0.00 | 0.00 | 0.00 | 83 | 1009.3 |
| 20260506131805 | 74 | 142 | 5.2 | 11.3 | 0.00 | 0.00 | 0.00 | 83 | 1009.2 |
| 20260506131304 | 74 | 137 | 5.2 | 11.3 | 0.00 | 0.00 | 0.00 | 84 | 1009.3 |
| 20260506130804 | 74 | 153 | 6.1 | 10.4 | 0.00 | 0.00 | 0.00 | 84 | 1009.0 |
| 20260506130304 | 74 | 150 | 5.2 | 10.4 | 0.00 | 0.00 | 0.00 | 84 | 1008.8 |
| 20260506123805 | 73 | 145 | 6.1 | 10.4 | 0.00 | 0.00 | 0.00 | 84 | 1008.6 |
| 20260506123305 | 73 | 147 | 6.1 | 10.4 | 0.00 | 0.00 | 0.00 | 84 | 1008.6 |
| 20260506121804 | 73 | 147 | 6.1 | 8.7 | 0.00 | 0.00 | 0.00 | 84 | 1008.4 |
| 20260506121306 | 73 | 157 | 3.5 | 7.0 | 0.00 | 0.00 | 0.00 | 84 | 1008.6 |
| 20260506120805 | 73 | 161 | 4.3 | 7.0 | 0.00 | 0.00 | 0.00 | 84 | 1008.7 |
| 20260506120305 | 73 | 157 | 2.6 | 5.2 | 0.00 | 0.00 | 0.00 | 84 | 1008.7 |
| 20260506114805 | 73 | 159 | 2.6 | 4.3 | 0.00 | 0.00 | 0.00 | 84 | 1008.6 |
| 20260506114304 | 73 | 159 | 0.9 | 5.2 | 0.00 | 0.00 | 0.00 | 84 | 1008.6 |
| 20260506113305 | 73 | 172 | 0.9 | 5.2 | 0.00 | 0.00 | 0.00 | 84 | 1008.7 |
| 20260506111804 | 73 | 172 | 0.0 | 0.0 | 0.00 | 0.00 | 0.00 | 83 | 1008.8 |
| 20260506111305 | 73 | 172 | 0.0 | 0.0 | 0.00 | 0.00 | 0.00 | 84 | 1008.8 |
| 20260506110805 | 73 | 172 | 0.0 | 0.0 | 0.00 | 0.00 | 0.00 | 84 | 1008.8 |
| 20260506110305 | 73 | 172 | 0.0 | 0.0 | 0.00 | 0.00 | 0.00 | 83 | 1008.8 |
| 20260506104804 | 73 | 172 | 0.0 | 0.0 | 0.00 | 0.00 | 0.00 | 83 | 1008.7 |
| 20260506104305 | 73 | 172 | 0.0 | 0.0 | 0.00 | 0.00 | 0.00 | 83 | 1008.7 |
| 20260506103304 | 73 | 172 | 0.0 | 2.6 | 0.00 | 0.00 | 0.00 | 83 | 1008.6 |
| 20260506101805 | 73 | 172 | 1.7 | 7.0 | 0.00 | 0.00 | 0.00 | 83 | 1008.4 |
| 20260506101304 | 74 | 186 | 1.7 | 2.6 | 0.00 | 0.00 | 0.00 | 83 | 1008.4 |
| 20260506100804 | 74 | 186 | 1.7 | 5.2 | 0.00 | 0.00 | 0.00 | 83 | 1008.3 |
| 20260506100304 | 74 | 185 | 4.3 | 8.7 | 0.00 | 0.00 | 0.00 | 83 | 1008.3 |
| 20260506094805 | 74 | 153 | 0.9 | 4.3 | 0.00 | 0.00 | 0.00 | 82 | 1008.2 |